| time (UTC) | temp C | wind direction | speed KPH | gust KPH | rain 1hr cm | rain 24hr cm | rain mn cm | humidity % | barometer mb |
| 20260507161838 | 18 | 353 | 0.0 | 1.6 | 0.00 | 0.00 | 0.00 | 79 | 1005.1 |
| 20260507161334 | 18 | 353 | 1.6 | 3.2 | 0.00 | 0.00 | 0.00 | 78 | 1005.0 |
| 20260507160831 | 17 | 354 | 0.0 | 1.6 | 0.00 | 0.00 | 0.00 | 80 | 1005.1 |
| 20260507160326 | 17 | 354 | 0.0 | 1.6 | 0.00 | 0.00 | 0.00 | 81 | 1004.9 |
| 20260507155823 | 17 | 353 | 0.0 | 1.6 | 0.00 | 0.00 | 0.00 | 82 | 1005.0 |
| 20260507155319 | 16 | 353 | 0.0 | 1.6 | 0.00 | 0.00 | 0.00 | 86 | 1005.0 |
| 20260507154816 | 16 | 353 | 0.0 | 1.6 | 0.00 | 0.00 | 0.00 | 86 | 1004.9 |
| 20260507154313 | 16 | 353 | 0.0 | 1.6 | 0.00 | 0.00 | 0.00 | 86 | 1005.0 |
| 20260507153810 | 16 | 353 | 0.0 | 1.6 | 0.00 | 0.00 | 0.00 | 86 | 1005.1 |
| 20260507153306 | 16 | 353 | 0.0 | 1.6 | 0.00 | 0.00 | 0.00 | 86 | 1004.8 |
| 20260507152803 | 16 | 353 | 0.0 | 1.6 | 0.00 | 0.00 | 0.00 | 86 | 1005.1 |
| 20260507152259 | 16 | 353 | 0.0 | 1.6 | 0.00 | 0.00 | 0.00 | 86 | 1004.9 |
| 20260507151755 | 16 | 353 | 0.0 | 1.6 | 0.00 | 0.00 | 0.00 | 86 | 1005.0 |
| 20260507151251 | 16 | 353 | 0.0 | 1.6 | 0.00 | 0.00 | 0.00 | 86 | 1004.7 |
| 20260507150748 | 16 | 354 | 0.0 | 0.0 | 0.00 | 0.00 | 0.00 | 87 | 1005.0 |
| 20260507150245 | 16 | 354 | 0.0 | 0.0 | 0.00 | 0.00 | 0.00 | 87 | 1004.9 |
| 20260507145741 | 15 | 353 | 0.0 | 0.0 | 0.00 | 0.00 | 0.00 | 94 | 1004.8 |
| 20260507145238 | 15 | 353 | 0.0 | 0.0 | 0.00 | 0.00 | 0.00 | 94 | 1004.7 |
| 20260507144735 | 15 | 353 | 0.0 | 0.0 | 0.00 | 0.00 | 0.00 | 94 | 1004.8 |
| 20260507144233 | 15 | 353 | 0.0 | 0.0 | 0.00 | 0.00 | 0.00 | 94 | 1004.8 |
| 20260507143729 | 15 | 353 | 0.0 | 0.0 | 0.00 | 0.00 | 0.00 | 94 | 1004.7 |
| 20260507143226 | 15 | 353 | 0.0 | 0.0 | 0.00 | 0.00 | 0.00 | 94 | 1004.7 |
| 20260507142723 | 15 | 353 | 0.0 | 0.0 | 0.00 | 0.00 | 0.00 | 94 | 1004.6 |
| 20260507142219 | 15 | 353 | 0.0 | 0.0 | 0.00 | 0.00 | 0.00 | 94 | 1004.6 |
| 20260507141715 | 15 | 353 | 0.0 | 0.0 | 0.00 | 0.00 | 0.00 | 95 | 1004.7 |
| 20260507141213 | 13 | 353 | 0.0 | 0.0 | 0.00 | 0.00 | 0.00 | 96 | 1004.4 |
| 20260507140708 | 13 | 353 | 0.0 | 0.0 | 0.00 | 0.00 | 0.00 | 96 | 1004.5 |
| 20260507140206 | 13 | 353 | 0.0 | 0.0 | 0.00 | 0.00 | 0.00 | 96 | 1004.4 |
| 20260507135703 | 13 | 353 | 0.0 | 0.0 | 0.00 | 0.00 | 0.00 | 96 | 1004.4 |
| 20260507135200 | 13 | 353 | 0.0 | 0.0 | 0.00 | 0.00 | 0.00 | 96 | 1004.6 |
| 20260507134657 | 13 | 353 | 0.0 | 0.0 | 0.00 | 0.00 | 0.00 | 96 | 1004.4 |
| 20260507134153 | 13 | 353 | 0.0 | 0.0 | 0.00 | 0.00 | 0.00 | 96 | 1004.4 |
| 20260507133649 | 13 | 353 | 0.0 | 0.0 | 0.00 | 0.00 | 0.00 | 96 | 1004.4 |
| 20260507133146 | 13 | 353 | 0.0 | 0.0 | 0.00 | 0.00 | 0.00 | 96 | 1004.1 |
| 20260507132643 | 13 | 354 | 0.0 | 0.0 | 0.00 | 0.00 | 0.00 | 96 | 1004.3 |
| 20260507132139 | 13 | 353 | 0.0 | 0.0 | 0.00 | 0.00 | 0.00 | 96 | 1004.2 |
| 20260507131636 | 13 | 353 | 0.0 | 0.0 | 0.00 | 0.00 | 0.00 | 96 | 1004.4 |
| 20260507131134 | 13 | 354 | 0.0 | 0.0 | 0.00 | 0.00 | 0.00 | 96 | 1004.2 |
| 20260507130630 | 13 | 353 | 0.0 | 0.0 | 0.00 | 0.00 | 0.00 | 96 | 1004.2 |
| 20260507130129 | 13 | 353 | 0.0 | 0.0 | 0.00 | 0.00 | 0.00 | 96 | 1004.3 |
| 20260507125627 | 13 | 354 | 0.0 | 0.0 | 0.00 | 0.00 | 0.00 | 96 | 1004.1 |
| 20260507125124 | 13 | 353 | 0.0 | 0.0 | 0.00 | 0.00 | 0.00 | 96 | 1004.1 |
| 20260507124620 | 13 | 355 | 0.0 | 0.0 | 0.00 | 0.00 | 0.00 | 96 | 1004.2 |
| 20260507124118 | 13 | 353 | 0.0 | 0.0 | 0.00 | 0.00 | 0.00 | 96 | 1004.1 |
| 20260507123616 | 13 | 354 | 0.0 | 1.6 | 0.00 | 0.00 | 0.00 | 96 | 1003.9 |
| 20260507123113 | 13 | 353 | 0.0 | 0.0 | 0.00 | 0.00 | 0.00 | 96 | 1003.9 |
| 20260507122608 | 13 | 353 | 0.0 | 0.0 | 0.00 | 0.00 | 0.00 | 96 | 1003.9 |
| 20260507122104 | 13 | 352 | 0.0 | 0.0 | 0.00 | 0.00 | 0.00 | 96 | 1003.8 |
| 20260507121600 | 13 | 353 | 0.0 | 0.0 | 0.00 | 0.00 | 0.00 | 96 | 1004.1 |
| 20260507121056 | 12 | 352 | 0.0 | 0.0 | 0.00 | 0.00 | 0.00 | 96 | 1003.9 |
| 20260507120552 | 12 | 352 | 0.0 | 0.0 | 0.00 | 0.00 | 0.00 | 96 | 1004.1 |
| 20260507120049 | 12 | 352 | 0.0 | 0.0 | 0.00 | 0.00 | 0.00 | 96 | 1004.0 |
| 20260507115545 | 12 | 352 | 0.0 | 0.0 | 0.00 | 0.00 | 0.00 | 96 | 1003.9 |
| 20260507115041 | 12 | 352 | 0.0 | 0.0 | 0.00 | 0.00 | 0.00 | 96 | 1004.0 |
| 20260507114537 | 12 | 352 | 0.0 | 0.0 | 0.00 | 0.00 | 0.00 | 96 | 1003.9 |
| 20260507114035 | 12 | 352 | 0.0 | 0.0 | 0.00 | 0.00 | 0.00 | 96 | 1004.2 |
| 20260507113532 | 12 | 352 | 0.0 | 0.0 | 0.00 | 0.00 | 0.00 | 96 | 1004.0 |
| 20260507113029 | 12 | 352 | 0.0 | 0.0 | 0.00 | 0.00 | 0.00 | 96 | 1004.0 |
| 20260507112527 | 12 | 352 | 0.0 | 0.0 | 0.00 | 0.00 | 0.00 | 96 | 1003.8 |
| 20260507112023 | 12 | 352 | 0.0 | 0.0 | 0.00 | 0.00 | 0.00 | 96 | 1004.1 |
| 20260507111520 | 12 | 352 | 0.0 | 0.0 | 0.00 | 0.00 | 0.00 | 96 | 1004.1 |
| 20260507111017 | 12 | 352 | 0.0 | 0.0 | 0.00 | 0.00 | 0.00 | 96 | 1004.1 |
| 20260507110513 | 12 | 352 | 0.0 | 0.0 | 0.00 | 0.00 | 0.00 | 96 | 1004.1 |
| 20260507110010 | 12 | 352 | 0.0 | 0.0 | 0.00 | 0.00 | 0.00 | 96 | 1004.2 |
| 20260507105507 | 12 | 352 | 0.0 | 0.0 | 0.00 | 0.00 | 0.00 | 96 | 1004.1 |
| 20260507105003 | 12 | 352 | 0.0 | 0.0 | 0.00 | 0.00 | 0.00 | 96 | 1004.1 |
| 20260507104501 | 12 | 352 | 0.0 | 0.0 | 0.00 | 0.00 | 0.00 | 96 | 1004.2 |
| 20260507103956 | 12 | 352 | 0.0 | 0.0 | 0.00 | 0.00 | 0.00 | 96 | 1004.3 |
| 20260507103453 | 12 | 352 | 0.0 | 0.0 | 0.00 | 0.00 | 0.00 | 96 | 1004.1 |
| 20260507102949 | 12 | 352 | 0.0 | 0.0 | 0.00 | 0.00 | 0.00 | 96 | 1004.4 |
| 20260507102446 | 12 | 352 | 0.0 | 0.0 | 0.00 | 0.00 | 0.00 | 96 | 1004.3 |
| 20260507101942 | 13 | 352 | 0.0 | 0.0 | 0.00 | 0.00 | 0.00 | 96 | 1004.3 |
| 20260507101437 | 13 | 352 | 0.0 | 0.0 | 0.00 | 0.00 | 0.00 | 96 | 1004.6 |
| 20260507100934 | 13 | 352 | 0.0 | 0.0 | 0.00 | 0.00 | 0.00 | 96 | 1004.5 |
| 20260507100432 | 13 | 352 | 0.0 | 0.0 | 0.00 | 0.00 | 0.00 | 96 | 1004.4 |
| 20260507095930 | 13 | 352 | 0.0 | 0.0 | 0.00 | 0.00 | 0.00 | 96 | 1004.4 |
| 20260507095427 | 13 | 352 | 0.0 | 0.0 | 0.00 | 0.00 | 0.00 | 96 | 1004.6 |
| 20260507094924 | 13 | 352 | 0.0 | 0.0 | 0.00 | 0.00 | 0.00 | 96 | 1004.5 |
| 20260507094420 | 13 | 352 | 0.0 | 0.0 | 0.00 | 0.00 | 0.00 | 96 | 1004.5 |
| 20260507093917 | 13 | 352 | 0.0 | 0.0 | 0.00 | 0.00 | 0.00 | 96 | 1004.4 |
| 20260507093415 | 13 | 352 | 0.0 | 0.0 | 0.00 | 0.00 | 0.00 | 96 | 1004.6 |
| 20260507092913 | 13 | 352 | 0.0 | 0.0 | 0.00 | 0.00 | 0.00 | 96 | 1004.8 |
| 20260507092409 | 13 | 352 | 0.0 | 0.0 | 0.00 | 0.00 | 0.00 | 96 | 1004.8 |
| 20260507091906 | 13 | 352 | 0.0 | 0.0 | 0.00 | 0.00 | 0.00 | 95 | 1004.7 |
| 20260507091402 | 13 | 352 | 0.0 | 0.0 | 0.00 | 0.00 | 0.00 | 95 | 1004.8 |
| 20260507090858 | 13 | 352 | 0.0 | 0.0 | 0.00 | 0.00 | 0.00 | 95 | 1004.7 |
| 20260507090354 | 13 | 352 | 0.0 | 0.0 | 0.00 | 0.00 | 0.00 | 96 | 1004.8 |
| 20260507085852 | 13 | 352 | 0.0 | 1.6 | 0.00 | 0.00 | 0.00 | 96 | 1004.8 |
| 20260507085348 | 13 | 352 | 0.0 | 0.0 | 0.00 | 0.00 | 0.00 | 95 | 1005.0 |
| 20260507084845 | 13 | 352 | 0.0 | 0.0 | 0.00 | 0.00 | 0.00 | 96 | 1005.0 |
| 20260507084342 | 13 | 352 | 0.0 | 0.0 | 0.00 | 0.00 | 0.00 | 95 | 1005.1 |
| 20260507083839 | 13 | 352 | 1.6 | 1.6 | 0.00 | 0.00 | 0.00 | 95 | 1005.1 |
| 20260507083336 | 13 | 352 | 0.0 | 0.0 | 0.00 | 0.00 | 0.00 | 95 | 1005.1 |
| 20260507082832 | 13 | 352 | 0.0 | 0.0 | 0.00 | 0.00 | 0.00 | 95 | 1005.1 |
| 20260507082327 | 13 | 352 | 0.0 | 0.0 | 0.00 | 0.00 | 0.00 | 95 | 1005.2 |
| 20260507081825 | 13 | 352 | 0.0 | 0.0 | 0.00 | 0.00 | 0.00 | 95 | 1005.3 |
| 20260507081321 | 13 | 352 | 0.0 | 0.0 | 0.00 | 0.00 | 0.00 | 95 | 1005.3 |
| 20260507080818 | 12 | 352 | 0.0 | 0.0 | 0.00 | 0.00 | 0.00 | 95 | 1005.3 |
| 20260507080314 | 13 | 352 | 0.0 | 0.0 | 0.00 | 0.00 | 0.00 | 95 | 1005.3 |
| 20260507075809 | 13 | 352 | 0.0 | 0.0 | 0.00 | 0.00 | 0.00 | 95 | 1005.4 |
| 20260507075307 | 12 | 352 | 0.0 | 0.0 | 0.00 | 0.00 | 0.00 | 95 | 1005.3 |
| 20260507074802 | 13 | 352 | 0.0 | 0.0 | 0.00 | 0.00 | 0.00 | 95 | 1005.4 |
| 20260507074300 | 13 | 352 | 0.0 | 0.0 | 0.00 | 0.00 | 0.00 | 94 | 1005.4 |
| 20260507073757 | 13 | 352 | 0.0 | 0.0 | 0.00 | 0.00 | 0.00 | 95 | 1005.3 |
| 20260507073253 | 13 | 352 | 0.0 | 0.0 | 0.00 | 0.00 | 0.00 | 94 | 1005.4 |
| 20260507072751 | 13 | 352 | 0.0 | 0.0 | 0.00 | 0.00 | 0.00 | 94 | 1005.3 |
| 20260507072248 | 13 | 352 | 0.0 | 0.0 | 0.00 | 0.00 | 0.00 | 94 | 1005.3 |
| 20260507071746 | 13 | 352 | 0.0 | 0.0 | 0.00 | 0.00 | 0.00 | 94 | 1005.5 |
| 20260507071242 | 13 | 351 | 0.0 | 1.6 | 0.00 | 0.00 | 0.00 | 95 | 1005.4 |
| 20260507070739 | 13 | 352 | 0.0 | 0.0 | 0.00 | 0.00 | 0.00 | 94 | 1005.4 |
| 20260507070236 | 13 | 352 | 0.0 | 0.0 | 0.00 | 0.00 | 0.00 | 94 | 1005.5 |
| 20260507065732 | 13 | 352 | 0.0 | 0.0 | 0.00 | 0.00 | 0.00 | 94 | 1005.6 |
| 20260507065229 | 13 | 352 | 0.0 | 0.0 | 0.00 | 0.00 | 0.00 | 94 | 1005.7 |
| 20260507064727 | 13 | 352 | 0.0 | 0.0 | 0.00 | 0.00 | 0.00 | 94 | 1005.6 |
| 20260507064226 | 13 | 352 | 0.0 | 0.0 | 0.00 | 0.00 | 0.00 | 94 | 1005.7 |
| 20260507063722 | 13 | 352 | 0.0 | 0.0 | 0.00 | 0.00 | 0.00 | 94 | 1005.7 |
| 20260507063219 | 13 | 352 | 0.0 | 0.0 | 0.00 | 0.00 | 0.00 | 94 | 1005.7 |
| 20260507062716 | 13 | 352 | 0.0 | 0.0 | 0.00 | 0.00 | 0.00 | 94 | 1005.6 |
| 20260507062214 | 13 | 352 | 0.0 | 0.0 | 0.00 | 0.00 | 0.00 | 94 | 1005.6 |
| 20260507061711 | 13 | 352 | 0.0 | 0.0 | 0.00 | 0.00 | 0.00 | 93 | 1005.7 |
| 20260507061209 | 13 | 352 | 0.0 | 0.0 | 0.00 | 0.00 | 0.00 | 93 | 1005.6 |
| 20260507060707 | 13 | 352 | 0.0 | 0.0 | 0.00 | 0.00 | 0.00 | 93 | 1005.7 |
| 20260507060203 | 13 | 352 | 0.0 | 0.0 | 0.00 | 0.00 | 0.00 | 93 | 1005.8 |
| 20260507055659 | 13 | 352 | 0.0 | 0.0 | 0.00 | 0.00 | 0.00 | 93 | 1005.5 |
| 20260507055155 | 13 | 352 | 0.0 | 0.0 | 0.00 | 0.00 | 0.00 | 93 | 1005.6 |
| 20260507054651 | 14 | 352 | 0.0 | 0.0 | 0.00 | 0.00 | 0.00 | 93 | 1005.6 |
| 20260507054148 | 14 | 352 | 0.0 | 0.0 | 0.00 | 0.00 | 0.00 | 93 | 1005.7 |
| 20260507053646 | 14 | 352 | 0.0 | 0.0 | 0.00 | 0.00 | 0.00 | 92 | 1005.6 |
| 20260507053144 | 14 | 352 | 0.0 | 0.0 | 0.00 | 0.00 | 0.00 | 92 | 1005.7 |
| 20260507052642 | 14 | 352 | 0.0 | 0.0 | 0.00 | 0.00 | 0.00 | 92 | 1005.7 |
| 20260507052138 | 14 | 352 | 0.0 | 0.0 | 0.00 | 0.00 | 0.00 | 92 | 1005.8 |
| 20260507051636 | 14 | 352 | 0.0 | 1.6 | 0.00 | 0.00 | 0.00 | 92 | 1005.6 |
| 20260507051132 | 15 | 352 | 0.0 | 0.0 | 0.00 | 0.00 | 0.00 | 92 | 1005.7 |
| 20260507050629 | 15 | 352 | 0.0 | 0.0 | 0.00 | 0.00 | 0.00 | 92 | 1005.7 |
| 20260507050126 | 15 | 352 | 0.0 | 0.0 | 0.00 | 0.00 | 0.00 | 91 | 1005.5 |
| 20260507045623 | 15 | 352 | 0.0 | 0.0 | 0.00 | 0.00 | 0.00 | 91 | 1005.6 |
| 20260507045120 | 15 | 351 | 0.0 | 0.0 | 0.00 | 0.00 | 0.00 | 91 | 1005.7 |
| 20260507044616 | 15 | 352 | 0.0 | 0.0 | 0.00 | 0.00 | 0.00 | 91 | 1005.6 |
| 20260507044113 | 15 | 352 | 0.0 | 0.0 | 0.00 | 0.00 | 0.00 | 90 | 1005.5 |
| 20260507043609 | 15 | 351 | 0.0 | 0.0 | 0.00 | 0.00 | 0.00 | 90 | 1005.6 |
| 20260507043107 | 15 | 352 | 0.0 | 0.0 | 0.00 | 0.00 | 0.00 | 90 | 1005.4 |
| 20260507042602 | 15 | 352 | 0.0 | 0.0 | 0.00 | 0.00 | 0.00 | 90 | 1005.4 |
| 20260507042058 | 15 | 352 | 0.0 | 0.0 | 0.00 | 0.00 | 0.00 | 89 | 1005.4 |
| 20260507041555 | 15 | 352 | 0.0 | 0.0 | 0.00 | 0.00 | 0.00 | 89 | 1005.4 |
| 20260507041052 | 15 | 352 | 0.0 | 0.0 | 0.00 | 0.00 | 0.00 | 89 | 1005.3 |
| 20260507040548 | 15 | 352 | 0.0 | 1.6 | 0.00 | 0.00 | 0.00 | 89 | 1005.4 |
| 20260507040045 | 15 | 352 | 0.0 | 0.0 | 0.00 | 0.00 | 0.00 | 88 | 1005.3 |
| 20260507035541 | 15 | 352 | 0.0 | 0.0 | 0.00 | 0.00 | 0.00 | 88 | 1005.3 |
| 20260507035037 | 15 | 352 | 0.0 | 0.0 | 0.00 | 0.00 | 0.00 | 88 | 1005.2 |
| 20260507034534 | 15 | 352 | 0.0 | 1.6 | 0.00 | 0.00 | 0.00 | 87 | 1005.2 |
| 20260507034032 | 15 | 352 | 0.0 | 0.0 | 0.00 | 0.00 | 0.00 | 87 | 1005.2 |
| 20260507033530 | 15 | 352 | 0.0 | 0.0 | 0.00 | 0.00 | 0.00 | 86 | 1005.3 |
| 20260507033027 | 15 | 352 | 0.0 | 3.2 | 0.00 | 0.00 | 0.00 | 86 | 1005.2 |
| 20260507032524 | 15 | 352 | 3.2 | 3.2 | 0.00 | 0.00 | 0.00 | 86 | 1005.0 |
| 20260507032020 | 15 | 352 | 0.0 | 0.0 | 0.00 | 0.00 | 0.00 | 86 | 1005.1 |
| 20260507031516 | 16 | 352 | 1.6 | 3.2 | 0.00 | 0.00 | 0.00 | 86 | 1005.0 |
| 20260507031014 | 16 | 352 | 0.0 | 1.6 | 0.00 | 0.00 | 0.00 | 86 | 1004.8 |
| 20260507030510 | 16 | 352 | 0.0 | 1.6 | 0.00 | 0.00 | 0.00 | 85 | 1004.9 |
| 20260507030008 | 16 | 352 | 1.6 | 4.8 | 0.00 | 0.00 | 0.00 | 85 | 1004.8 |
| 20260507025504 | 16 | 352 | 0.0 | 3.2 | 0.00 | 0.00 | 0.00 | 85 | 1004.8 |
| 20260507025002 | 16 | 352 | 0.0 | 0.0 | 0.00 | 0.00 | 0.00 | 84 | 1004.8 |
| 20260507024500 | 16 | 352 | 0.0 | 0.0 | 0.00 | 0.00 | 0.00 | 84 | 1004.8 |
| 20260507023956 | 16 | 352 | 1.6 | 1.6 | 0.00 | 0.00 | 0.00 | 83 | 1004.8 |
| 20260507023452 | 16 | 352 | 0.0 | 0.0 | 0.00 | 0.00 | 0.00 | 83 | 1004.6 |
| 20260507022949 | 16 | 352 | 3.2 | 3.2 | 0.00 | 0.00 | 0.00 | 82 | 1004.5 |
| 20260507022447 | 16 | 352 | 4.8 | 6.4 | 0.00 | 0.00 | 0.00 | 82 | 1004.8 |
| 20260507021942 | 16 | 352 | 1.6 | 4.8 | 0.00 | 0.00 | 0.00 | 82 | 1004.7 |
| 20260507021437 | 16 | 352 | 1.6 | 1.6 | 0.00 | 0.00 | 0.00 | 82 | 1004.7 |
| 20260507020935 | 16 | 352 | 0.0 | 4.8 | 0.00 | 0.00 | 0.00 | 82 | 1004.8 |
| 20260507020432 | 16 | 352 | 1.6 | 1.6 | 0.00 | 0.00 | 0.00 | 82 | 1004.6 |
| 20260507015929 | 17 | 352 | 1.6 | 4.8 | 0.00 | 0.00 | 0.00 | 81 | 1004.4 |
| 20260507015427 | 17 | 352 | 0.0 | 3.2 | 0.00 | 0.00 | 0.00 | 80 | 1004.4 |
| 20260507014924 | 17 | 352 | 0.0 | 1.6 | 0.00 | 0.00 | 0.00 | 79 | 1004.4 |
| 20260507014420 | 17 | 352 | 0.0 | 1.6 | 0.00 | 0.00 | 0.00 | 79 | 1004.3 |
| 20260507013917 | 17 | 352 | 1.6 | 1.6 | 0.00 | 0.00 | 0.00 | 79 | 1004.5 |
| 20260507013414 | 17 | 352 | 1.6 | 1.6 | 0.00 | 0.00 | 0.00 | 79 | 1004.4 |
| 20260507012912 | 17 | 352 | 3.2 | 3.2 | 0.00 | 0.00 | 0.00 | 79 | 1004.5 |
| 20260507012408 | 17 | 352 | 0.0 | 0.0 | 0.00 | 0.00 | 0.00 | 79 | 1004.4 |
| 20260507011904 | 17 | 352 | 0.0 | 0.0 | 0.00 | 0.00 | 0.00 | 79 | 1004.5 |
| 20260507011401 | 17 | 351 | 3.2 | 3.2 | 0.00 | 0.00 | 0.00 | 78 | 1004.7 |
| 20260507010901 | 17 | 351 | 3.2 | 3.2 | 0.00 | 0.00 | 0.00 | 78 | 1004.4 |
| 20260507010357 | 18 | 351 | 1.6 | 1.6 | 0.00 | 0.00 | 0.00 | 77 | 1004.5 |
| 20260507005855 | 18 | 351 | 3.2 | 4.8 | 0.00 | 0.00 | 0.00 | 77 | 1004.4 |
| 20260507005351 | 18 | 351 | 3.2 | 4.8 | 0.00 | 0.00 | 0.00 | 76 | 1004.4 |
| 20260507004848 | 18 | 351 | 3.2 | 4.8 | 0.00 | 0.00 | 0.00 | 76 | 1004.4 |
| 20260507004345 | 18 | 351 | 4.8 | 6.4 | 0.00 | 0.00 | 0.00 | 74 | 1004.2 |
| 20260507003842 | 18 | 351 | 3.2 | 6.4 | 0.00 | 0.00 | 0.00 | 74 | 1004.4 |
| 20260507003337 | 19 | 351 | 1.6 | 3.2 | 0.00 | 0.00 | 0.00 | 73 | 1004.4 |
| 20260507002832 | 18 | 351 | 3.2 | 4.8 | 0.00 | 0.00 | 0.00 | 73 | 1004.4 |
| 20260507002329 | 18 | 351 | 3.2 | 4.8 | 0.00 | 0.00 | 0.00 | 73 | 1004.3 |
| 20260507001827 | 19 | 351 | 4.8 | 6.4 | 0.00 | 0.00 | 0.00 | 72 | 1004.4 |
| 20260507001323 | 19 | 351 | 1.6 | 1.6 | 0.00 | 0.00 | 0.00 | 71 | 1004.3 |
| 20260507000820 | 19 | 351 | 1.6 | 3.2 | 0.00 | 0.00 | 0.00 | 71 | 1004.2 |
| 20260507000315 | 20 | 351 | 3.2 | 4.8 | 0.00 | 0.00 | 0.00 | 69 | 1004.2 |
| 20260506235812 | 20 | 351 | 1.6 | 1.6 | 0.00 | 0.00 | 0.00 | 66 | 1004.0 |
| 20260506235308 | 20 | 351 | 1.6 | 1.6 | 0.00 | 0.00 | 0.00 | 66 | 1004.1 |
| 20260506234805 | 20 | 351 | 1.6 | 1.6 | 0.00 | 0.00 | 0.00 | 66 | 1004.3 |
| 20260506234302 | 20 | 351 | 1.6 | 1.6 | 0.00 | 0.00 | 0.00 | 66 | 1004.3 |
| 20260506233800 | 20 | 351 | 1.6 | 1.6 | 0.00 | 0.00 | 0.00 | 66 | 1004.2 |
| 20260506233250 | 20 | 351 | 1.6 | 1.6 | 0.00 | 0.00 | 0.00 | 66 | 1004.1 |
| 20260506232742 | 20 | 351 | 1.6 | 3.2 | 0.00 | 0.00 | 0.00 | 67 | 1004.1 |
| 20260506232241 | 20 | 351 | 1.6 | 3.2 | 0.00 | 0.00 | 0.00 | 67 | 1004.2 |
| 20260506231739 | 21 | 351 | 1.6 | 1.6 | 0.00 | 0.00 | 0.00 | 66 | 1004.2 |
| 20260506231237 | 21 | 351 | 1.6 | 1.6 | 0.00 | 0.00 | 0.00 | 66 | 1004.2 |
| 20260506230734 | 21 | 351 | 1.6 | 1.6 | 0.00 | 0.00 | 0.00 | 66 | 1004.4 |
| 20260506230231 | 21 | 351 | 1.6 | 1.6 | 0.00 | 0.00 | 0.00 | 66 | 1004.0 |
| 20260506225727 | 21 | 351 | 1.6 | 1.6 | 0.00 | 0.00 | 0.00 | 66 | 1004.3 |
| 20260506225224 | 21 | 352 | 1.6 | 1.6 | 0.00 | 0.00 | 0.00 | 65 | 1004.5 |
| 20260506224721 | 21 | 352 | 1.6 | 1.6 | 0.00 | 0.00 | 0.00 | 65 | 1004.4 |
| 20260506224218 | 21 | 352 | 1.6 | 1.6 | 0.00 | 0.00 | 0.00 | 65 | 1004.5 |
| 20260506223714 | 21 | 352 | 1.6 | 3.2 | 0.00 | 0.00 | 0.00 | 64 | 1004.4 |
| 20260506223210 | 21 | 352 | 1.6 | 3.2 | 0.00 | 0.00 | 0.00 | 64 | 1004.6 |
| 20260506222707 | 21 | 351 | 1.6 | 3.2 | 0.00 | 0.00 | 0.00 | 64 | 1004.6 |
| 20260506222202 | 21 | 351 | 1.6 | 3.2 | 0.00 | 0.00 | 0.00 | 64 | 1004.6 |
| 20260506221701 | 21 | 351 | 1.6 | 1.6 | 0.00 | 0.00 | 0.00 | 63 | 1004.7 |
| 20260506221158 | 21 | 351 | 1.6 | 1.6 | 0.00 | 0.00 | 0.00 | 63 | 1004.8 |
| 20260506220655 | 21 | 351 | 3.2 | 3.2 | 0.00 | 0.00 | 0.00 | 64 | 1004.9 |
| 20260506220150 | 21 | 351 | 1.6 | 1.6 | 0.00 | 0.00 | 0.00 | 64 | 1004.8 |
| 20260506215647 | 21 | 352 | 1.6 | 1.6 | 0.00 | 0.00 | 0.00 | 60 | 1004.8 |
| 20260506215142 | 21 | 352 | 1.6 | 1.6 | 0.00 | 0.00 | 0.00 | 60 | 1005.0 |
| 20260506214639 | 21 | 352 | 1.6 | 1.6 | 0.00 | 0.00 | 0.00 | 60 | 1004.9 |
| 20260506214137 | 21 | 352 | 1.6 | 1.6 | 0.00 | 0.00 | 0.00 | 60 | 1004.7 |
| 20260506213635 | 21 | 352 | 1.6 | 1.6 | 0.00 | 0.00 | 0.00 | 60 | 1005.0 |
| 20260506213132 | 21 | 352 | 1.6 | 1.6 | 0.00 | 0.00 | 0.00 | 60 | 1005.1 |
| 20260506212629 | 22 | 352 | 1.6 | 3.2 | 0.00 | 0.00 | 0.00 | 60 | 1005.0 |
| 20260506212124 | 22 | 352 | 1.6 | 3.2 | 0.00 | 0.00 | 0.00 | 60 | 1004.9 |
| 20260506211620 | 21 | 352 | 3.2 | 3.2 | 0.00 | 0.00 | 0.00 | 60 | 1005.1 |
| 20260506211117 | 22 | 351 | 6.4 | 12.9 | 0.00 | 0.00 | 0.00 | 58 | 1005.1 |
| 20260506210614 | 22 | 351 | 3.2 | 4.8 | 0.00 | 0.00 | 0.00 | 59 | 1005.0 |
| 20260506210110 | 22 | 351 | 3.2 | 4.8 | 0.00 | 0.00 | 0.00 | 59 | 1005.0 |
| 20260506205607 | 22 | 351 | 1.6 | 1.6 | 0.00 | 0.00 | 0.00 | 56 | 1005.1 |
| 20260506205102 | 22 | 351 | 1.6 | 1.6 | 0.00 | 0.00 | 0.00 | 56 | 1005.2 |
| 20260506204600 | 22 | 351 | 1.6 | 1.6 | 0.00 | 0.00 | 0.00 | 56 | 1005.2 |
| 20260506204057 | 22 | 351 | 1.6 | 1.6 | 0.00 | 0.00 | 0.00 | 56 | 1005.0 |
| 20260506203555 | 22 | 351 | 1.6 | 1.6 | 0.00 | 0.00 | 0.00 | 56 | 1005.1 |
| 20260506203051 | 22 | 351 | 1.6 | 1.6 | 0.00 | 0.00 | 0.00 | 56 | 1005.2 |
| 20260506202549 | 22 | 352 | 3.2 | 3.2 | 0.00 | 0.00 | 0.00 | 56 | 1005.2 |
| 20260506202045 | 22 | 352 | 3.2 | 3.2 | 0.00 | 0.00 | 0.00 | 56 | 1005.2 |
| 20260506201543 | 22 | 352 | 3.2 | 3.2 | 0.00 | 0.00 | 0.00 | 56 | 1005.3 |
| 20260506201039 | 22 | 352 | 3.2 | 3.2 | 0.00 | 0.00 | 0.00 | 56 | 1005.3 |
| 20260506200535 | 22 | 352 | 3.2 | 3.2 | 0.00 | 0.00 | 0.00 | 56 | 1005.4 |
| 20260506200032 | 22 | 352 | 3.2 | 3.2 | 0.00 | 0.00 | 0.00 | 56 | 1005.4 |
| 20260506195529 | 22 | 352 | 3.2 | 3.2 | 0.00 | 0.00 | 0.00 | 56 | 1005.4 |
| 20260506195026 | 22 | 352 | 3.2 | 3.2 | 0.00 | 0.00 | 0.00 | 56 | 1005.5 |
| 20260506194523 | 22 | 352 | 3.2 | 3.2 | 0.00 | 0.00 | 0.00 | 56 | 1005.6 |
| 20260506194020 | 22 | 352 | 3.2 | 3.2 | 0.00 | 0.00 | 0.00 | 56 | 1005.6 |
| 20260506193517 | 22 | 352 | 3.2 | 3.2 | 0.00 | 0.00 | 0.00 | 56 | 1005.6 |
| 20260506193014 | 22 | 352 | 3.2 | 3.2 | 0.00 | 0.00 | 0.00 | 56 | 1005.8 |
| 20260506192511 | 22 | 352 | 1.6 | 3.2 | 0.00 | 0.00 | 0.00 | 58 | 1005.7 |
| 20260506192007 | 21 | 351 | 0.0 | 1.6 | 0.00 | 0.00 | 0.00 | 59 | 1005.8 |
| 20260506191504 | 22 | 351 | 3.2 | 4.8 | 0.00 | 0.00 | 0.00 | 58 | 1005.6 |
| 20260506191000 | 22 | 353 | 1.6 | 3.2 | 0.00 | 0.00 | 0.00 | 56 | 1005.7 |
| 20260506190457 | 22 | 353 | 1.6 | 3.2 | 0.00 | 0.00 | 0.00 | 56 | 1005.8 |
| 20260506185953 | 22 | 353 | 1.6 | 3.2 | 0.00 | 0.00 | 0.00 | 55 | 1005.7 |
| 20260506185451 | 22 | 353 | 1.6 | 1.6 | 0.00 | 0.00 | 0.00 | 56 | 1006.0 |
| 20260506184948 | 22 | 354 | 0.0 | 1.6 | 0.00 | 0.00 | 0.00 | 56 | 1006.0 |
| 20260506184445 | 22 | 354 | 1.6 | 1.6 | 0.00 | 0.00 | 0.00 | 55 | 1006.1 |
| 20260506183942 | 22 | 354 | 1.6 | 1.6 | 0.00 | 0.00 | 0.00 | 56 | 1006.0 |
| 20260506183437 | 22 | 354 | 1.6 | 1.6 | 0.00 | 0.00 | 0.00 | 57 | 1006.2 |
| 20260506182935 | 21 | 354 | 1.6 | 3.2 | 0.00 | 0.00 | 0.00 | 56 | 1006.1 |
| 20260506182432 | 21 | 354 | 1.6 | 3.2 | 0.00 | 0.00 | 0.00 | 58 | 1006.1 |
| 20260506181929 | 21 | 354 | 1.6 | 4.8 | 0.00 | 0.00 | 0.00 | 56 | 1006.1 |
| 20260506181427 | 21 | 354 | 0.0 | 0.0 | 0.00 | 0.00 | 0.00 | 59 | 1006.2 |
| 20260506180923 | 21 | 354 | 0.0 | 1.6 | 0.00 | 0.00 | 0.00 | 60 | 1006.3 |
| 20260506180420 | 21 | 354 | 1.6 | 3.2 | 0.00 | 0.00 | 0.00 | 57 | 1006.4 |
| 20260506175917 | 21 | 354 | 0.0 | 1.6 | 0.00 | 0.00 | 0.00 | 58 | 1006.1 |
| 20260506175414 | 21 | 354 | 1.6 | 1.6 | 0.00 | 0.00 | 0.00 | 59 | 1006.2 |
| 20260506174910 | 21 | 354 | 0.0 | 1.6 | 0.00 | 0.00 | 0.00 | 58 | 1006.5 |
| 20260506174408 | 21 | 354 | 6.4 | 9.7 | 0.00 | 0.00 | 0.00 | 58 | 1006.5 |
| 20260506173905 | 21 | 354 | 3.2 | 6.4 | 0.00 | 0.00 | 0.00 | 58 | 1006.4 |
| 20260506173402 | 20 | 354 | 1.6 | 4.8 | 0.00 | 0.00 | 0.00 | 60 | 1006.5 |
| 20260506172859 | 21 | 357 | 1.6 | 3.2 | 0.00 | 0.00 | 0.00 | 59 | 1006.5 |
| 20260506172355 | 21 | 357 | 1.6 | 3.2 | 0.00 | 0.00 | 0.00 | 59 | 1006.6 |
| 20260506171853 | 21 | 357 | 0.0 | 3.2 | 0.00 | 0.00 | 0.00 | 60 | 1006.5 |
| 20260506171350 | 21 | 357 | 1.6 | 1.6 | 0.00 | 0.00 | 0.00 | 59 | 1006.8 |
| 20260506170848 | 21 | 357 | 0.0 | 1.6 | 0.00 | 0.00 | 0.00 | 61 | 1006.3 |
| 20260506170344 | 20 | 357 | 0.0 | 1.6 | 0.00 | 0.00 | 0.00 | 60 | 1006.6 |
| 20260506165843 | 20 | 357 | 1.6 | 3.2 | 0.00 | 0.00 | 0.00 | 63 | 1006.6 |
| 20260506165340 | 20 | 359 | 3.2 | 3.2 | 0.00 | 0.00 | 0.00 | 61 | 1006.5 |
| 20260506164836 | 20 | 359 | 3.2 | 3.2 | 0.00 | 0.00 | 0.00 | 61 | 1006.5 |
| 20260506164333 | 20 | 359 | 3.2 | 3.2 | 0.00 | 0.00 | 0.00 | 61 | 1006.5 |
| 20260506163831 | 21 | 359 | 3.2 | 3.2 | 0.00 | 0.00 | 0.00 | 61 | 1006.5 |
| 20260506163325 | 21 | 0 | 1.6 | 1.6 | 0.00 | 0.00 | 0.00 | 60 | 1006.6 |
| 20260506162821 | 20 | 359 | 0.0 | 1.6 | 0.00 | 0.00 | 0.00 | 63 | 1006.4 |
| 20260506162319 | 19 | 359 | 1.6 | 1.6 | 0.00 | 0.00 | 0.00 | 63 | 1006.4 |